Location: Darr Branch
(32.1532°N, 97.3853°W)
Time: 09:42:45
(UTC+00:00)

Cosmos 1484 Rocket - Pass Details

Date: 18 November 2025
Orbit: 443 x 473 km, 97.6° (Epoch: 07 December)

Event Time Altitude Azimuth Distance (km) Brightness Sun altitude
Rises 12:10:46 0° 9° (N) 2,518 6.1 -11.0°
Reaches altitude 10° 12:12:50 10° 7° (N) 1,633 5.1 -10.6°
Maximum altitude 12:16:19 72° 283° (WNW) 493 2.4 -9.8°
Drops below altitude 10° 12:19:45 10° 199° (SSW) 1,604 5.2 -9.1°
Sets 12:21:46 0° 197° (SSW) 2,468 6.2 -8.7°
